GPS BIIR-16M

Last updated on Tue Sep 22 2026 00:03:02 GMT+0000 (Coordinated Universal Time)

1 29601U 06052A 26264.14670090 -.00000005 00000+0 00000+0 0 9992 2 29601 54.9222 210.2055 0085702 91.1449 269.8213 2.00563391145335
UTC large
Height (km)
Speed (km/s)
/
Latitude / Longitude
Inclination (degrees)
Orbital Period (minutes)
Azimuth
Elevation
Range (km)
Doppler Factor

Next 0 passes for location: London (51.5072 / 0.1276)

No passes found over London.
GPS BIIR-16M